Location: Newark
(45.2500°N, 7.5833°E)
Time: 05:02:53
(UTC+00:00)

N. Korean satellite - Pass Details

Date: 19 December 2019
Orbit: 454 x 508 km, 97.2° (Epoch: 20 January)

Event Time Altitude Azimuth Distance (km) Brightness Sun altitude
Rises 05:51:28 0° 5° (N) 2,515 10.0 -12.2°
Reaches altitude 10° 05:53:37 10° 358° (N) 1,626 9.0 -11.9°
Maximum altitude 05:56:53 40° 288° (WNW) 697 6.9 -11.3°
Drops below altitude 10° 06:00:06 10° 217° (SW) 1,595 9.0 -10.8°
Sets 06:02:11 0° 210° (SSW) 2,459 10.1 -10.5°
